Current weather by "City, St" or "zip code"  
 
Advertise Here

Current Conditions: Tulsa - Jones Jr. Airport, OK

Fog/Mist


56.0 F

Last Updated on Feb 28 2021, 6:53 am CST
Humidity: 100%
Wind Speed: N 0.0 mph
Barometer 29.81 in
Dewpoint: 55.9 F
Visibility: 1.25 mi
Precip: --
Heat Index: NA
Wind Chill: NA
Current conditions at:

Tulsa - Jones Jr. Airport, OK (KRVS)

Lat: 36.04255 Lon: 95.99005

Local Radar Image active severe weather and emergency alerts image image weather storm and storm spotter reports image weather observation monitoring service image
Local
Radar
Active
Alerts
Storm Reports Obs
Monitoring

Sign-up For Email & Text Message Weather Alert Notification Services


Advertise Here

Observation History for Tulsa - Jones Jr. Airport, OK


Time Wind
(mph)
Vis
(mi)
Weather Precip (in) Temperature (F) Relative
Humidity
Wind
Chill
(F)
Heat
Index
(F)
Pressure
Air Dwpt altimeter
(in)
sea level
(mb)
Rmks
6:53 am CST N 0.0 1.25 Fog/Mist -- 56.0 55.9 100% NA NA 29.81 1010.2
5:53 am CST N 0.0 1.25 Fog/Mist Trace 56.0 55.9 100% NA NA 29.78 1009.2
4:53 am CST N 3.5 3.00 Light Rain Fog/Mist Trace 57.0 55.9 96% NA NA 29.77 1008.7
3:53 am CST N 0.0 7.00 Overcast -- 59.0 57.9 96% NA NA 29.77 1008.7
2:53 am CST S 3.5 4.00 Fog/Mist -- 56.0 55.9 100% NA NA 29.74 1007.8
1:53 am CST SE 3.5 6.00 Fog/Mist -- 57.0 55.9 96% NA NA 29.76 1008.3
12:53 am CST S 5.8 9.00 Overcast -- 58.0 57.0 97% 57 NA 29.76 1008.6
11:53 pm CST S 8.1 9.00 Overcast -- 57.0 55.9 96% 55 NA 29.75 1008.2
10:53 pm CST S 6.9 7.00 Overcast Trace 56.0 55.0 97% 54 NA 29.78 1008.5
9:53 pm CST S 6.9 7.00 Rain 00.02 54.0 53.1 97% 52 NA 29.79 1009.0
8:53 pm CST S 4.6 8.00 Overcast Trace 53.0 52.0 96% 52 NA 29.79 1009.3
7:53 pm CST SE 8.1 8.00 Overcast 00.03 53.0 52.0 96% 50 NA 29.78 1009.0
6:53 pm CST SE 9.2 6.00 Fog/Mist -- 55.0 52.0 90% 52 NA 29.80 1009.4
5:53 pm CST SE 8.1 10.00 Overcast -- 57.0 46.9 69% 55 NA 29.79 1009.2
4:53 pm CST SE 5.8 10.00 Light Rain Trace 58.0 46.0 65% 57 NA 29.80 1009.4
3:53 pm CST SE 6.9 10.00 Overcast -- 58.0 45.0 62% 57 NA 29.81 1010.0
2:53 pm CST SE 9.2 G 21.9 10.00 Overcast -- 58.0 42.1 56% 56 NA 29.81 1009.7
1:53 pm CST SE 12.7 10.00 Overcast -- 60.0 42.1 52% 58 NA 29.83 1010.6
12:53 pm CST SE 15.0 G 24.2 10.00 Fair -- 60.0 43.0 53% 57 NA 29.85 1011.4
11:53 am CST SE 12.7 10.00 Fair -- 58.0 46.0 65% 55 NA 29.92 1013.6
10:53 am CST SE 9.2 10.00 Partly Cloudy -- 53.0 46.9 80% 50 NA 29.94 1014.3
9:53 am CST SE 8.1 7.00 Overcast -- 46.0 46.0 100% 42 NA 29.96 1015.1
8:53 am CST SE 5.8 0.25 Fog -- 43.0 43.0 100% 39 NA 29.98 1015.8
7:53 am CST SE 5.8 0.25 Fog -- 41.0 41.0 100% 37 NA 29.96 1015.2

Regional Weather Observation


Tulsa - Jones Jr. Airport, OK (KRVS)

Fog/Mist
56.0 F

Tulsa, Tulsa International Airport, OK (KTUL)

Fog/Mist
58.0 F

Bartlesville, Bartlesville Municipal Airport, OK (KBVO)

Overcast
51.0 F

Claremore, Claremore Regional Airport, OK (KGCM)

Fog/Mist
54.0 F

Cushing, Cushing Municipal Airport, OK (KCUH)

Overcast
51.0 F

Mid-America Industrial Airport, OK (KH71)

Fog/Mist
55.0 F
Advertise Here

Advertise Here